Simultaneous Nadir Overpasses (SNOs) Predictions

Prediction of SNOs between NOAA-19 and TERRA Satellite Orbit:

Table of predicted SNOs for the next 14.0 days since TLE Epoch: 7/18/2015
Index Date (NOAA-19) Time (NOAA-19) Lat,Lon (NOAA-19) SZA (NOAA-19 ) Date (TERRA) Time (TERRA) Lat,Lon (TERRA) SZA (TERRA ) Distance(km) Time Diff (sec)
1 07/20/2015 02:19:33 -72.22, -30.78 128.60 07/20/2015 02:19:49 -72.23, -30.72 128.59 2.38 16
2 07/20/2015 03:10:31 71.98, 136.93 51.18 07/20/2015 03:09:18 72.03, 136.57 51.22 13.28 73
3 07/22/2015 07:02:54 -72.29,-101.71 128.11 07/22/2015 07:04:05 -72.31,-101.65 128.09 3.13 71
4 07/22/2015 07:53:54 72.19, 65.73 51.80 07/22/2015 07:53:33 72.16, 65.73 51.77 3.19 21
5 07/24/2015 12:37:14 72.24, -5.17 52.30 07/24/2015 12:37:49 72.22, -5.22 52.29 2.59 35
6 07/24/2015 13:28:13 -72.13, 162.30 127.80 07/24/2015 13:27:19 -72.11, 162.21 127.83 3.41 54
7 07/26/2015 17:20:47 72.96, -77.48 53.48 07/26/2015 17:21:54 72.87, -75.09 53.43 78.68 67
8 07/26/2015 18:11:34 -72.21, 91.34 127.25 07/26/2015 18:11:34 -72.23, 91.35 127.23 1.97 0
9 07/26/2015 19:02:20 71.46, -99.96 52.04 07/26/2015 19:01:13 71.48,-102.30 52.01 82.63 67
10 07/28/2015 22:54:55 -72.30, 20.38 126.67 07/28/2015 22:55:50 -72.28, 20.37 126.68 1.67 55
11 07/28/2015 23:45:53 72.19,-172.16 53.24 07/28/2015 23:45:17 72.18,-172.17 53.23 1.55 36
12 07/31/2015 04:29:13 72.26, 116.91 53.84 07/31/2015 04:29:32 72.27, 116.93 53.85 1.40 19
